DW0805 Ramloese DK current weather conditions

sailwx.info

Wind from 284 at 0 knots gusting 2

Air temperature 17.2° C
Dewpoint 13.5° C

Last reported at 2016-Jul-26 20:45 UTC.
Time now 2016-Jul-26 21:52 UTC

Location: N 56°01' E 012°05'.
View on Google Maps.

See reports from other nearby stations

  
Tides and Currents Weather Stations Pressure Air Temp Water Temp Dewpoint Dewpoint Depression Visibility Wind Speed Wind Dir Waves Ship Positions
date/time (UTC)wind fromknots sea level pressurealtimeterstation pressurevisibilityair tempwater tempwave heightnotes
2016-Jul-26 20:45 284 0 gusting 2 17.2
2016-Jul-26 20:25 284 0 gusting 2 17.8
2016-Jul-26 20:15 284 1 gusting 4 17.2
2016-Jul-26 20:05 284 17.2
2016-Jul-26 19:55 284 17.8
2016-Jul-26 19:45 284 17.8
2016-Jul-26 19:35 284 18.3
2016-Jul-26 19:15 285 18.9
2016-Jul-26 19:05 297 19.4
2016-Jul-26 18:45 317 1 gusting 4 20.0
2016-Jul-26 18:35 284 2 gusting 6 20.0
2016-Jul-26 18:25 298 3 gusting 5 20.6
2016-Jul-26 18:15 291 2 gusting 5 21.1
2016-Jul-26 18:05 288 4 gusting 7 21.1
2016-Jul-26 17:55 280 2 gusting 6 21.7
2016-Jul-26 17:45 300 1 gusting 8 21.1
2016-Jul-26 17:35 320 2 gusting 6 21.7
2016-Jul-26 17:25 299 2 gusting 7 21.7
2016-Jul-26 17:15 321 4 gusting 7 22.2
2016-Jul-26 17:05 285 2 gusting 8 22.2
2016-Jul-26 16:55 273 2 gusting 7 22.8
2016-Jul-26 16:35 291 4 gusting 10 22.8
2016-Jul-26 16:25 290 5 gusting 10 22.8
2016-Jul-26 16:05 292 2 gusting 10 22.8
2016-Jul-26 15:35 284 6 gusting 12 22.8
2016-Jul-26 15:25 278 6 gusting 12 22.8
2016-Jul-26 15:15 262 5 gusting 10 22.8
2016-Jul-26 14:45 299 6 gusting 11 23.3
2016-Jul-26 14:35 292 5 gusting 10 23.9
2016-Jul-26 14:25 342 6 gusting 11 23.3
2016-Jul-26 14:15 281 6 gusting 12 23.3
2016-Jul-26 14:05 262 5 gusting 10 23.9
2016-Jul-26 13:45 293 4 gusting 8 23.3
2016-Jul-26 13:25 318 6 gusting 12 22.8
2016-Jul-26 12:45 283 6 gusting 10 23.3
2016-Jul-26 12:35 270 5 gusting 10 22.8
2016-Jul-26 12:15 287 6 gusting 11 22.8
2016-Jul-26 12:05 303 6 gusting 11 22.8
2016-Jul-26 11:55 318 4 gusting 12 22.2
2016-Jul-26 11:35 335 8 gusting 11 22.2
2016-Jul-26 11:25 317 6 gusting 11 21.7
2016-Jul-26 11:15 305 7 gusting 13 21.1
2016-Jul-26 11:05 299 8 gusting 13 21.1
2016-Jul-26 10:55 296 4 gusting 13 22.2
2016-Jul-26 10:45 323 5 gusting 12 22.2
2016-Jul-26 10:35 302 7 gusting 11 21.7
2016-Jul-26 10:15 309 6 gusting 11 21.1
2016-Jul-26 10:05 288 5 gusting 10 21.7
2016-Jul-26 09:55 296 6 gusting 13 21.1
2016-Jul-26 09:35 283 6 gusting 11 21.1
2016-Jul-26 09:25 317 5 gusting 11 22.2
2016-Jul-26 09:05 287 6 gusting 12 21.7
2016-Jul-26 08:55 308 4 gusting 10 21.1
2016-Jul-26 08:45 315 4 gusting 11 19.4
2016-Jul-26 08:35 324 4 gusting 11 20.0
2016-Jul-26 08:25 270 6 gusting 11 20.6
2016-Jul-26 08:15 313 4 gusting 10 21.1
2016-Jul-26 07:55 309 6 gusting 11 20.6
2016-Jul-26 07:45 299 5 gusting 11 21.1
2016-Jul-26 07:35 328 6 gusting 11 21.1
2016-Jul-26 07:25 281 4 gusting 8 20.6
2016-Jul-26 07:05 276 3 gusting 8 20.6
2016-Jul-26 06:55 288 4 gusting 8 20.0
2016-Jul-26 06:45 289 5 gusting 10 19.4
2016-Jul-26 06:35 280 4 gusting 8 19.4
2016-Jul-26 06:25 307 3 gusting 7 18.9
2016-Jul-26 06:05 294 2 gusting 7 18.9
2016-Jul-26 05:55 298 3 gusting 11 18.9
2016-Jul-26 05:45 299 4 gusting 10 18.9
2016-Jul-26 05:35 324 3 gusting 8 18.9
2016-Jul-26 05:25 335 4 gusting 10 18.9
2016-Jul-26 05:15 311 4 gusting 10 18.9
2016-Jul-26 05:05 315 2 gusting 7 18.9
2016-Jul-26 04:55 284 5 gusting 10 18.3
2016-Jul-26 04:45 306 6 gusting 10 18.9
2016-Jul-26 04:35 318 5 gusting 10 18.9
2016-Jul-26 04:25 316 3 gusting 8 18.3
2016-Jul-26 04:15 290 4 gusting 10 18.3
2016-Jul-26 04:05 288 2 gusting 6 18.3
2016-Jul-26 03:55 286 3 gusting 6 18.3
2016-Jul-26 03:45 292 4 gusting 7 18.3
2016-Jul-26 02:55 283 2 gusting 6 18.9
2016-Jul-26 02:35 266 4 gusting 7 18.9
2016-Jul-26 02:25 274 2 gusting 7 18.9
2016-Jul-26 02:15 286 4 gusting 10 18.9
2016-Jul-26 02:05 288 4 gusting 8 18.9
2016-Jul-26 01:35 278 3 gusting 7 19.4
2016-Jul-26 01:25 284 1 gusting 7 19.4
2016-Jul-26 01:15 285 1 gusting 6 19.4
2016-Jul-26 01:05 285 2 gusting 6 19.4
2016-Jul-26 00:45 241 2 gusting 6 19.4
2016-Jul-26 00:35 234 0 gusting 6 19.4
2016-Jul-25 23:55 216 0 gusting 2 19.4
2016-Jul-25 23:35 216 1 gusting 2 20.0
2016-Jul-25 23:25 215 20.0
2016-Jul-25 23:15 215 20.0
2016-Jul-25 22:55 215 1 gusting 4 20.6
2016-Jul-25 22:35 204 1 gusting 2 20.6
2016-Jul-25 22:05 203 3 gusting 6 20.6
2016-Jul-25 21:55 188 3 gusting 6 20.6
2016-Jul-25 21:45 174 1 gusting 5 20.0
2016-Jul-25 21:25 174 2 gusting 5 20.0
2016-Jul-25 21:05 178 2 gusting 6 20.6
2016-Jul-25 20:55 185 2 gusting 6 20.6
2016-Jul-25 20:45 198 1 gusting 5 20.6
2016-Jul-25 20:35 201 0 gusting 5 20.6
2016-Jul-25 20:15 204 2 gusting 5 20.6
2016-Jul-25 20:05 206 0 gusting 5 20.6
2016-Jul-25 19:45 210 1 gusting 4 20.6
2016-Jul-25 19:35 210 1 gusting 2 20.6
2016-Jul-25 19:25 215 1 gusting 5 20.6
2016-Jul-25 19:15 216 4 gusting 7 21.1
2016-Jul-25 18:55 213 4 gusting 8 21.1
2016-Jul-25 18:45 202 4 gusting 10 21.7
2016-Jul-25 18:35 213 6 gusting 10 21.7
2016-Jul-25 18:25 184 4 gusting 10 21.7
2016-Jul-25 17:45 165 2 gusting 6 22.2
2016-Jul-25 17:35 185 2 gusting 7 22.2
2016-Jul-25 17:25 157 2 gusting 7 22.2
2016-Jul-25 17:15 179 2 gusting 6 22.2
2016-Jul-25 17:05 182 2 gusting 7 22.2
2016-Jul-25 16:45 186 3 gusting 6 22.8
2016-Jul-25 16:25 216 3 gusting 6 23.3
2016-Jul-25 16:05 181 2 gusting 6 23.3
2016-Jul-25 15:55 177 3 gusting 6 23.3
2016-Jul-25 15:45 176 1 gusting 6 23.9
2016-Jul-25 15:35 183 4 gusting 7 23.9
2016-Jul-25 15:15 188 4 gusting 6 24.4
2016-Jul-25 15:05 175 3 gusting 7 24.4
2016-Jul-25 14:55 148 1 gusting 7 25.0
2016-Jul-25 14:45 174 2 gusting 8 25.0
2016-Jul-25 14:25 182 4 gusting 8 25.6
2016-Jul-25 14:15 180 5 gusting 10 25.6
2016-Jul-25 14:05 191 6 gusting 10 25.0
2016-Jul-25 13:45 183 6 gusting 10 25.6
2016-Jul-25 13:35 185 5 gusting 10 25.6
2016-Jul-25 13:25 178 6 gusting 10 25.0
2016-Jul-25 12:55 177 6 gusting 10 25.0
2016-Jul-25 12:45 176 4 gusting 10 25.0
2016-Jul-25 12:25 196 4 gusting 8 26.1
2016-Jul-25 12:15 181 2 gusting 7 26.1
2016-Jul-25 12:05 184 3 gusting 7 26.1
2016-Jul-25 11:55 185 4 gusting 8 25.6
2016-Jul-25 11:45 179 5 gusting 8 25.6
2016-Jul-25 11:35 180 4 gusting 6 26.1
2016-Jul-25 11:25 184 5 gusting 7 25.6
2016-Jul-25 11:15 211 3 gusting 10 26.1
2016-Jul-25 11:05 207 4 gusting 7 25.6
2016-Jul-25 10:55 204 1 gusting 7 26.1
2016-Jul-25 10:45 204 1 gusting 5 25.6
2016-Jul-25 10:35 204 4 gusting 8 25.0
2016-Jul-25 10:25 188 2 gusting 5 26.1
2016-Jul-25 10:15 180 2 gusting 6 26.1
2016-Jul-25 09:55 180 3 gusting 6 26.1
2016-Jul-25 09:45 178 2 gusting 6 26.1
2016-Jul-25 09:35 180 2 gusting 6 26.7
2016-Jul-25 09:25 180 4 gusting 7 25.6
2016-Jul-25 09:15 180 4 gusting 7 26.7
2016-Jul-25 09:05 165 3 gusting 6 26.1
2016-Jul-25 08:45 182 3 gusting 6 26.1
2016-Jul-25 08:35 179 3 gusting 6 25.6
2016-Jul-25 08:25 180 4 gusting 6 26.1
2016-Jul-25 08:05 175 1 gusting 6 25.6
2016-Jul-25 07:55 181 2 gusting 6 25.6
2016-Jul-25 07:35 184 4 gusting 6 24.4
2016-Jul-25 07:25 180 4 gusting 6 25.0
2016-Jul-25 06:55 185 2 gusting 6 24.4
2016-Jul-25 06:45 182 2 gusting 6 23.9
2016-Jul-25 06:35 179 4 gusting 7 23.3
2016-Jul-25 06:25 193 2 gusting 6 22.8
2016-Jul-25 06:15 183 2 gusting 7 22.2
2016-Jul-25 06:05 179 5 gusting 8 21.1
2016-Jul-25 05:55 205 3 gusting 8 20.6
2016-Jul-25 05:35 193 2 gusting 6 21.1
2016-Jul-25 05:25 184 1 gusting 6 20.6
2016-Jul-25 05:15 179 1 gusting 6 20.0
2016-Jul-25 04:55 177 4 gusting 6 20.0
2016-Jul-25 04:45 176 3 gusting 6 20.0
2016-Jul-25 04:35 173 2 gusting 6 19.4
2016-Jul-25 04:25 173 3 gusting 6 19.4
2016-Jul-25 04:15 166 3 gusting 6 19.4
2016-Jul-25 03:45 153 2 gusting 5 18.9
2016-Jul-25 03:35 148 1 gusting 6 18.3
2016-Jul-25 03:25 146 1 gusting 6 18.3
2016-Jul-25 02:55 106 0 gusting 4 18.3
2016-Jul-25 02:45 103 0 gusting 2 18.3
2016-Jul-25 02:35 103 0 gusting 2 17.8
2016-Jul-25 02:25 103 1 gusting 2 17.8
2016-Jul-25 02:15 103 0 gusting 2 17.8
2016-Jul-25 02:05 103 1 gusting 2 17.8
2016-Jul-25 01:55 103 17.8
2016-Jul-25 01:35 103 17.8
2016-Jul-25 01:25 103 0 gusting 1 17.8
2016-Jul-25 01:05 103 0 gusting 1 17.8
2016-Jul-25 00:55 103 17.8
2016-Jul-25 00:45 103 0 gusting 2 17.8
2016-Jul-25 00:35 103 1 gusting 2 18.3
2016-Jul-25 00:25 103 0 gusting 2 17.8
2016-Jul-25 00:15 103 0 gusting 2 17.8
2016-Jul-25 00:05 103 0 gusting 2 18.3
2016-Jul-24 23:55 103 1 gusting 2 18.3
2016-Jul-24 23:45 103 0 gusting 2 18.9
2016-Jul-24 23:25 103 0 gusting 2 18.9
2016-Jul-24 23:15 103 0 gusting 4 18.9
2016-Jul-24 23:05 101 1 gusting 2 18.9
2016-Jul-24 22:55 101 1 gusting 6 18.9
2016-Jul-24 22:45 094 1 gusting 2 18.9
2016-Jul-24 22:05 093 0 gusting 2 19.4
2016-Jul-24 21:45 090 1 gusting 2 20.0
2016-Jul-24 21:35 090 0 gusting 2 20.6
2016-Jul-24 21:25 090 1 gusting 2 20.6
2016-Jul-24 21:15 090 0 gusting 2 20.6
2016-Jul-24 21:05 090 0 gusting 2 20.6